BEL6PR EBBR-LHBP

Flight info

Callsign BEL6PR
Flight time 1h 33m
Altitude 33000
Route SOPOK Y863 OGLOR DCT EMGOD DCT BOMBI DCT BOREP DCT ENITA DCT ETVIS DCT BUDEX DCT TOVKA DCT ANEXA
Aircraft B739/M-SDE2E3FGHIRWXY/LB1

Departure

Time 2026-05-04 16:16
Airport Brussels Airport (EBBR)

Arrival

Time 2026-05-04 17:50
Airport Budapest Liszt Ferenc International Airport (LHBP)
Time Latitude Longitude Altitude Speed Heading
2026-05-04 15:53 50.90502 4.48894 120 ft 0 kts 155°
2026-05-04 16:04 50.90523 4.48879 115 ft 4 kts 155°
2026-05-04 16:05 50.90547 4.48862 116 ft 2 kts 155°
2026-05-04 16:05 50.90565 4.48842 115 ft 4 kts 114°
2026-05-04 16:05 50.90561 4.48784 117 ft 1 kts 65°
2026-05-04 16:06 50.90560 4.48782 117 ft 0 kts 65°
2026-05-04 16:09 50.90561 4.48785 120 ft 1 kts 65°
2026-05-04 16:10 50.90589 4.48882 119 ft 8 kts 65°
2026-05-04 16:11 50.90730 4.49106 120 ft 5 kts 46°
2026-05-04 16:11 50.90751 4.49167 118 ft 8 kts 65°
2026-05-04 16:12 50.90846 4.49494 120 ft 14 kts 65°
2026-05-04 16:12 50.90983 4.49865 119 ft 14 kts 33°
2026-05-04 16:13 50.91034 4.49907 118 ft 0 kts 22°
2026-05-04 16:14 50.91035 4.49907 118 ft 1 kts 22°
2026-05-04 16:14 50.91089 4.49939 117 ft 7 kts
2026-05-04 16:15 50.91073 4.49659 117 ft 17 kts 245°
2026-05-04 16:16 50.90843 4.48865 119 ft 93 kts 245°
2026-05-04 16:16 50.89387 4.43778 840 ft 210 kts 248°
2026-05-04 16:17 50.89592 4.39522 2584 ft 214 kts 313°
2026-05-04 16:18 50.93601 4.35115 3750 ft 260 kts 284°
2026-05-04 16:18 50.93541 4.32287 4446 ft 262 kts 248°
2026-05-04 16:19 50.88867 4.28634 6465 ft 272 kts 207°
2026-05-04 16:19 50.85825 4.25096 7805 ft 274 kts 219°
2026-05-04 16:20 50.80779 4.21194 9740 ft 284 kts 173°
2026-05-04 16:20 50.77621 4.22998 10389 ft 306 kts 156°
2026-05-04 16:21 50.74418 4.31902 10978 ft 359 kts 85°
2026-05-04 16:22 50.74677 4.39854 12056 ft 368 kts 89°
2026-05-04 16:22 50.73794 4.51915 13813 ft 374 kts 112°
2026-05-04 16:23 50.71372 4.63794 15372 ft 384 kts 108°
2026-05-04 16:24 50.68208 4.80121 17538 ft 396 kts 109°
2026-05-04 16:25 50.66566 4.88475 18537 ft 402 kts 109°
2026-05-04 16:26 50.63193 5.05514 20225 ft 413 kts 110°
2026-05-04 16:26 50.60602 5.18515 21419 ft 421 kts 111°
2026-05-04 16:27 50.58785 5.27327 22182 ft 425 kts 117°
2026-05-04 16:28 50.52773 5.36997 23473 ft 417 kts 141°
2026-05-04 16:28 50.46373 5.46560 24419 ft 425 kts 140°
2026-05-04 16:29 50.37710 5.59334 25729 ft 431 kts 141°
2026-05-04 16:30 50.31101 5.68970 26673 ft 435 kts 141°
2026-05-04 16:31 50.26681 5.75477 27251 ft 441 kts 137°
2026-05-04 16:31 50.23275 5.89172 28158 ft 462 kts 109°
2026-05-04 16:32 50.20819 6.03910 28808 ft 469 kts 110°
2026-05-04 16:33 50.19160 6.13617 29704 ft 463 kts 110°
2026-05-04 16:33 50.18360 6.23700 30177 ft 478 kts 91°
2026-05-04 16:34 50.19091 6.34037 30853 ft 477 kts 88°
2026-05-04 16:34 50.19455 6.39183 31150 ft 476 kts 88°
2026-05-04 16:35 50.20416 6.54609 31925 ft 475 kts 89°
2026-05-04 16:35 50.21051 6.69933 32686 ft 468 kts 96°
2026-05-04 16:36 50.20931 6.74990 32939 ft 467 kts 97°
2026-05-04 16:36 50.20645 6.85179 32995 ft 469 kts 97°
2026-05-04 16:37 50.20306 7.00415 32977 ft 467 kts 96°
2026-05-04 16:38 50.19881 7.20579 32988 ft 464 kts 96°
2026-05-04 16:39 50.18628 7.45656 32979 ft 467 kts 103°
2026-05-04 16:40 50.16660 7.65758 32975 ft 470 kts 103°
2026-05-04 16:41 50.14339 7.90962 32971 ft 470 kts 102°
2026-05-04 16:43 50.11977 8.16061 32961 ft 467 kts 103°
2026-05-04 16:43 50.10545 8.30978 32952 ft 465 kts 103°
2026-05-04 16:45 50.07618 8.60846 32961 ft 465 kts 103°
2026-05-04 16:46 50.05294 8.85797 32974 ft 470 kts 98°
2026-05-04 16:47 50.04539 9.06161 32976 ft 471 kts 96°
2026-05-04 16:48 50.03663 9.26506 32983 ft 471 kts 97°
2026-05-04 16:49 50.02709 9.46800 32969 ft 471 kts 97°
2026-05-04 16:50 50.01724 9.67100 32961 ft 471 kts 97°
2026-05-04 16:51 50.00966 9.82243 32957 ft 471 kts 97°
2026-05-04 16:52 49.99918 10.02543 32956 ft 471 kts 97°
2026-05-04 16:53 49.99110 10.17751 32943 ft 471 kts 97°
2026-05-04 16:54 49.98001 10.38033 32959 ft 471 kts 97°
2026-05-04 16:55 49.96014 10.68288 32950 ft 468 kts 104°
2026-05-04 16:56 49.92511 10.92931 32958 ft 468 kts 104°
2026-05-04 16:57 49.90460 11.07730 32954 ft 467 kts 104°
2026-05-04 16:58 49.87720 11.27414 32947 ft 467 kts 104°
2026-05-04 17:00 49.83545 11.56870 32961 ft 466 kts 104°
2026-05-04 17:01 49.80015 11.81331 32998 ft 466 kts 104°
2026-05-04 17:02 49.77158 12.00843 33013 ft 467 kts 104°
2026-05-04 17:03 49.74985 12.15529 33002 ft 467 kts 104°
2026-05-04 17:03 49.72793 12.30203 32975 ft 467 kts 104°
2026-05-04 17:04 49.69849 12.49769 32943 ft 468 kts 104°
2026-05-04 17:05 49.67139 12.69372 32942 ft 468 kts 103°
2026-05-04 17:06 49.64412 12.83740 32969 ft 462 kts 119°
2026-05-04 17:07 49.60230 12.93276 32988 ft 459 kts 127°
2026-05-04 17:07 49.55287 13.03958 32920 ft 461 kts 127°
2026-05-04 17:08 49.49744 13.16092 32950 ft 463 kts 127°
2026-05-04 17:09 49.46040 13.24185 32944 ft 465 kts 127°
2026-05-04 17:09 49.42928 13.30961 32931 ft 466 kts 127°
2026-05-04 17:10 49.33538 13.51297 32951 ft 468 kts 127°
2026-05-04 17:11 49.29763 13.59428 32930 ft 468 kts 127°
2026-05-04 17:12 49.24105 13.71571 32940 ft 465 kts 127°
2026-05-04 17:13 49.14731 13.91566 32953 ft 462 kts 127°
2026-05-04 17:14 49.07774 14.08220 32963 ft 466 kts 111°
2026-05-04 17:15 49.04222 14.22024 33013 ft 466 kts 112°
2026-05-04 17:16 48.99330 14.40238 32953 ft 464 kts 112°
2026-05-04 17:17 48.94362 14.58427 32929 ft 468 kts 112°
2026-05-04 17:18 48.89664 14.75520 32942 ft 471 kts 112°
2026-05-04 17:19 48.84583 14.93872 32927 ft 471 kts 112°
2026-05-04 17:20 48.79493 15.12113 32928 ft 468 kts 112°
2026-05-04 17:20 48.75678 15.25692 32940 ft 465 kts 112°
2026-05-04 17:21 48.70587 15.43696 32935 ft 464 kts 112°
2026-05-04 17:22 48.68051 15.52612 32936 ft 464 kts 112°
2026-05-04 17:23 48.62927 15.70534 32940 ft 465 kts 113°
2026-05-04 17:24 48.59048 15.84009 32923 ft 467 kts 113°
2026-05-04 17:25 48.53836 16.02000 32938 ft 468 kts 113°
2026-05-04 17:26 48.48607 16.19916 32935 ft 464 kts 113°
2026-05-04 17:27 48.42044 16.42219 32934 ft 468 kts 113°
2026-05-04 17:28 48.36810 16.59857 32270 ft 453 kts 113°
2026-05-04 17:29 48.32894 16.72981 29559 ft 466 kts 112°
2026-05-04 17:29 48.28918 16.86232 28944 ft 469 kts 113°
2026-05-04 17:31 48.22737 17.08841 28966 ft 463 kts 109°
2026-05-04 17:31 48.19348 17.22131 26796 ft 460 kts 110°
2026-05-04 17:32 48.16993 17.31186 24748 ft 470 kts 110°
2026-05-04 17:33 48.13447 17.44691 22678 ft 459 kts 112°
2026-05-04 17:33 48.12285 17.49101 22087 ft 452 kts 112°
2026-05-04 17:34 48.08876 17.62002 20213 ft 438 kts 112°
2026-05-04 17:34 48.07758 17.66217 19614 ft 434 kts 113°
2026-05-04 17:35 48.04463 17.78595 17891 ft 421 kts 113°
2026-05-04 17:35 48.02310 17.86646 16658 ft 413 kts 113°
2026-05-04 17:35 48.01249 17.90605 16062 ft 409 kts 114°
2026-05-04 17:36 48.00209 17.94478 15495 ft 405 kts 114°
2026-05-04 17:36 47.99008 17.98246 14875 ft 401 kts 121°
2026-05-04 17:36 47.97606 18.01826 14344 ft 397 kts 122°
2026-05-04 17:36 47.96208 18.05343 13848 ft 392 kts 122°
2026-05-04 17:37 47.94827 18.08836 13243 ft 389 kts 122°
2026-05-04 17:37 47.93460 18.12327 13097 ft 391 kts 122°
2026-05-04 17:37 47.92093 18.15836 13083 ft 393 kts 122°
2026-05-04 17:37 47.90730 18.19354 12991 ft 388 kts 122°
2026-05-04 17:38 47.89384 18.22833 13034 ft 390 kts 122°
2026-05-04 17:38 47.88029 18.26338 13006 ft 390 kts 122°
2026-05-04 17:38 47.86675 18.29836 13021 ft 389 kts 122°
2026-05-04 17:38 47.85323 18.33326 13012 ft 388 kts 122°
2026-05-04 17:39 47.82754 18.39959 12773 ft 349 kts 122°
2026-05-04 17:39 47.81573 18.43003 12628 ft 329 kts 122°
2026-05-04 17:39 47.80470 18.45838 12467 ft 313 kts 122°
2026-05-04 17:40 47.79373 18.48651 11906 ft 311 kts 122°
2026-05-04 17:40 47.78285 18.51435 11341 ft 310 kts 122°
2026-05-04 17:40 47.77199 18.54211 11244 ft 312 kts 122°
2026-05-04 17:40 47.76107 18.57001 11149 ft 313 kts 122°
2026-05-04 17:41 47.75040 18.59728 10948 ft 305 kts 122°
2026-05-04 17:41 47.73980 18.62436 10497 ft 302 kts 122°
2026-05-04 17:41 47.72950 18.65066 10383 ft 285 kts 122°
2026-05-04 17:41 47.71970 18.67567 10042 ft 279 kts 122°
2026-05-04 17:42 47.70988 18.70065 9451 ft 280 kts 123°
2026-05-04 17:42 47.70007 18.72557 8974 ft 278 kts 122°
2026-05-04 17:42 47.69038 18.75018 8500 ft 276 kts 123°
2026-05-04 17:42 47.68070 18.77473 8022 ft 275 kts 123°
2026-05-04 17:43 47.67112 18.79904 7603 ft 272 kts 123°
2026-05-04 17:43 47.66160 18.82316 7136 ft 271 kts 122°
2026-05-04 17:43 47.65210 18.84723 6712 ft 269 kts 122°
2026-05-04 17:43 47.64277 18.87086 6487 ft 258 kts 122°
2026-05-04 17:44 47.63405 18.89300 6382 ft 243 kts 123°
2026-05-04 17:44 47.62540 18.91480 6001 ft 246 kts 123°
2026-05-04 17:44 47.61704 18.93590 5981 ft 230 kts 123°
2026-05-04 17:44 47.60881 18.95660 5359 ft 235 kts 123°
2026-05-04 17:45 47.60007 18.97698 4837 ft 232 kts 133°
2026-05-04 17:45 47.58868 18.99349 4394 ft 227 kts 140°
2026-05-04 17:45 47.57794 19.01008 4004 ft 223 kts 135°
2026-05-04 17:45 47.56813 19.02664 3957 ft 213 kts 134°
2026-05-04 17:46 47.55808 19.04346 3620 ft 215 kts 135°
2026-05-04 17:46 47.54808 19.05982 3283 ft 212 kts 136°
2026-05-04 17:46 47.53852 19.07532 3041 ft 199 kts 136°
2026-05-04 17:46 47.52953 19.08987 2813 ft 183 kts 136°
2026-05-04 17:47 47.52123 19.10330 2596 ft 168 kts 136°
2026-05-04 17:47 47.51360 19.11563 2360 ft 159 kts 136°
2026-05-04 17:47 47.50617 19.12760 2146 ft 158 kts 136°
2026-05-04 17:47 47.49877 19.13958 1948 ft 158 kts 136°
2026-05-04 17:48 47.49140 19.15153 1736 ft 157 kts 136°
2026-05-04 17:48 47.48405 19.16347 1527 ft 158 kts 136°
2026-05-04 17:48 47.47665 19.17543 1300 ft 161 kts 135°
2026-05-04 17:48 47.46902 19.18786 1075 ft 161 kts 134°
2026-05-04 17:49 47.46147 19.20009 845 ft 160 kts 134°
2026-05-04 17:49 47.45388 19.21219 661 ft 164 kts 133°
2026-05-04 17:49 47.44629 19.22459 455 ft 159 kts 133°
2026-05-04 17:49 47.43998 19.23484 453 ft 102 kts 133°
2026-05-04 17:50 47.43604 19.24124 455 ft 78 kts 133°
2026-05-04 17:50 47.43260 19.24675 456 ft 68 kts 132°
2026-05-04 17:50 47.43097 19.24968 455 ft 26 kts 103°
2026-05-04 17:50 47.43137 19.25107 457 ft 0 kts 43°
2026-05-04 17:51 47.43139 19.25109 457 ft 1 kts 43°
2026-05-04 17:51 47.43148 19.25121 457 ft 3 kts 41°
2026-05-04 17:51 47.43167 19.25147 457 ft 5 kts 45°
2026-05-04 17:52 47.43170 19.25151 457 ft 0 kts 45°
2026-05-04 17:54 47.43178 19.25162 456 ft 3 kts 44°
2026-05-04 17:55 47.43199 19.25192 458 ft 5 kts 44°
2026-05-04 17:55 47.43226 19.25231 459 ft 5 kts 44°
2026-05-04 17:55 47.43253 19.25269 461 ft 5 kts 44°
2026-05-04 17:55 47.43280 19.25306 464 ft 5 kts 41°
2026-05-04 17:56 47.43299 19.25329 465 ft 5 kts 39°
2026-05-04 17:56 47.43326 19.25364 467 ft 5 kts 42°
2026-05-04 17:56 47.43355 19.25403 470 ft 6 kts 42°
2026-05-04 17:56 47.43405 19.25468 471 ft 8 kts 43°
2026-05-04 17:57 47.43433 19.25506 474 ft 8 kts 42°
2026-05-04 17:57 47.43479 19.25567 479 ft 10 kts 42°
2026-05-04 17:57 47.43534 19.25642 476 ft 12 kts 42°
2026-05-04 17:57 47.43604 19.25735 482 ft 15 kts 43°
2026-05-04 17:58 47.43685 19.25845 484 ft 17 kts 42°
2026-05-04 17:58 47.43731 19.25961 484 ft 0 kts 103°
2026-05-04 17:58 47.43721 19.25988 485 ft 0 kts 126°
2026-05-04 17:58 47.43707 19.26014 478 ft 8 kts 129°
2026-05-04 17:59 47.43654 19.26101 478 ft 14 kts 132°
2026-05-04 17:59 47.43588 19.26207 482 ft 14 kts 133°
2026-05-04 17:59 47.43487 19.26340 477 ft 0 kts 136°
2026-05-04 18:00 47.43486 19.26341 477 ft 1 kts 136°
2026-05-04 18:00 47.43472 19.26353 478 ft 3 kts 174°
2026-05-04 18:01 47.43448 19.26336 477 ft 4 kts 213°
2026-05-04 18:01 47.43437 19.26322 477 ft 0 kts 223°
2026-05-04 18:01 47.43432 19.26314 479 ft 2 kts 221°
2026-05-04 18:02 47.43420 19.26298 481 ft 0 kts 224°